This demonstration page uses our WeatherBlox Daily Observations layout. Learn more.

Left ArrowRight Arrow

41.86663, -103.66717

Hourly Observations for July 30, 2020

Temp ( °F °C ) Dew Point ( °F °C ) Humidity (%) Winds ( mph kmh ) Pressure ( in mb ) Visibility ( mi km ) Precip ( " mm )
12:53 am 00:53 Cloudy 65 18.3 63 17.2 93 93 W 3 6 29.97 1015 10 16.0934 0 0
1:53 am 01:53 Cloudy 64 17.8 63 17.2 96 96 WNW 6 9 29.96 1015 10 16.0934 0 0
2:53 am 02:53 Cloudy 65 18.3 63 17.2 93 93 Calm 29.98 1015 10 16.0934 0 0
3:53 am 03:53 Cloudy 64 17.8 63 17.2 96 96 Calm 30.01 1016 8 12.87472 0.001 0.001
4:20 am 04:20 Cloudy 65 18.3 63 17.2 93 93 W 3 6 29.98 1015 9 14.48406 0 0
4:33 am 04:33 Cloudy 65 18.3 63 17.2 93 93 WNW 3 6 29.98 1015 9 14.48406 0 0
4:53 am 04:53 Cloudy 65 18.3 63 17.2 93 93 NW 3 6 30.03 1017 8 12.87472 0 0
5:53 am 05:53 Cloudy 65 18.3 63 17.2 93 93 NE 5 7 30.06 1018 10 16.0934 0 0
6:28 am 06:28 Cloudy 64 18 61 16 88 88 ENE 8 13 30.01 1016 10 16.0934 0 0
6:53 am 06:53 Cloudy 64 17.8 61 16.1 90 90 ENE 7 11 30.08 1019 10 16.0934 0.001 0.001
7:53 am 07:53 Cloudy 65 18.3 61 16.1 87 87 N 7 11 30.09 1019 10 16.0934 0.001 0.001
8:53 am 08:53 Cloudy 66 18.9 61 16.1 84 84 NE 6 9 30.11 1020 10 16.0934 0 0
9:53 am 09:53 Cloudy 69 20.6 59 15 70 70 NNE 12 19 30.12 1020 10 16.0934 0 0
10:53 am 10:53 Cloudy with Light Rain 67 19.4 61 16.1 81 81 NNE 10 17 30.15 1021 9 14.48406 0.001 0.001
11:53 am 11:53 Cloudy 69 20.6 59 15 70 70 NNE 7 11 30.14 1021 10 16.0934 0.01 0.254
12:53 pm 12:53 Mostly Cloudy 73 22.8 58 14.4 59 59 WNW 7 11 30.13 1020 10 16.0934 0.001 0.001
1:53 pm 13:53 Mostly Cloudy 73 22.8 58 14.4 59 59 undefined N/A 30.13 1020 10 16.0934 0 0
2:53 pm 14:53 Cloudy 76 24.4 58 14.4 54 54 NW 5 7 30.12 1020 10 16.0934 0 0
3:53 pm 15:53 Cloudy 74 23.3 61 16.1 64 64 NNW 9 15 30.12 1020 10 16.0934 0.001 0.001
4:53 pm 16:53 Partly Cloudy 74 23.3 61 16.1 64 64 NW 7 11 30.12 1020 10 16.0934 0.001 0.001
5:53 pm 17:53 Sunny 77 25 61 16.1 58 58 WNW 7 11 30.11 1020 10 16.0934 0 0
6:53 pm 18:53 Sunny 78 25.6 58 14.4 50 50 Calm 30.12 1020 10 16.0934 0 0
7:53 pm 19:53 Sunny 74 23.3 59 15 60 60 WSW 3 6 30.12 1020 10 16.0934 0 0
8:53 pm 20:53 Clear 71 21.7 59 15 66 66 SSW 3 6 30.12 1020 10 16.0934 0 0
9:53 pm 21:53 Clear 67 19.4 60 15.6 79 79 undefined N/A 30.14 1021 10 16.0934 0 0
10:53 pm 22:53 Clear 63 17.2 60 15.6 90 90 NNE 5 7 30.14 1021 10 16.0934 0 0
11:53 pm 23:53 Clear 62 16.7 59 15 90 90 Calm 30.12 1020 10 16.0934 0 0

Powered by AerisWeather